Weather in Iquitos

Peru     3°44′09″S   73°14′54″W
temp.,
°C
wind,
m/s
gust,
m/s
humid.,
%
clouds,
%
prec.,
mm/h
press.,
hPa
HPBL,
m
13 may, thu
thu1301:00+22wnw0010038 1.6 101321
04:00+21w009934 0.0 101216
07:00+23wsw119634 0.0 1014124
10:00+30e116557 0.1 10151005
13:00+25se129674 3.4 1012235
16:00+28s117432 0.7 1009666
19:00+23se119727 0.8 101115
22:00+22ese119799 0.3 101316
14 may, fri
fri1401:00+22w009854 1.3 101215
04:00+22ese0199100 0.3 101121
07:00+23se119981 0.6 101370
10:00+27ese228270 0.3 1014711
13:00+29w01716 1.8 1010660
16:00+28se117739 1.6 1008491
19:00+23se11985 2.6 101011
22:00+23ese119990 1.9 101219
15 may, sat
sat1501:00+22se1199100 2.1 101215
04:00+22se0199100 0.5 101120
07:00+22w009997 2.6 101330
10:00+25nne119699 4.6 1014134
13:00+25nne019779 8.8 1011157
16:00+24nnw1198100 2.1 100937
19:00+23w019979 2.3 101215
22:00+22wsw0099100 0.2 101316
16 may, sun
sun1601:00+22w019996 0.3 101220
04:00+22s00100100 0.0 101124
07:00+23s029998 0.3 1014109
10:00+24sse0298100 1.7 1015221
13:00+23ese1599100 6.7 1013329
16:00+22sse14100100 9.6 1011198
19:00+22se13100100 11.4 1013100
22:00+22e009994 0.0 101420
17 may, mon
mon1701:00+22e0010074 0.0 101322
04:00+21s1110085 0.0 101325
07:00+22s0110070 0.0 101553
10:00+26se227941 0.1 1016703
13:00+27ese128147 1.8 1013641
16:00+26ene129359 2.8 1011414
19:00+23ne1599100 5.6 1014181
22:00+22ne149994 0.0 1015155